Regional Weather Roundup
Issued by NWS

Home | Current Version | Previous Version | Graphics & Text | Print | Product List | Glossary Off
Versions: 1 2 3 4 5 6 7 8 9 10 11 12 13 14 15 16 17 18 19 20 21 22 23 24 25 26 27 28 29 30 31 32 33 34 35 36 37 38 39 40 41 42 43 44 45 46 47 48 49 50

757
ASUS45 KBOU 081507
RWRCO

WEATHER ROUNDUP FOR COLORADO
NATIONAL WEATHER SERVICE DENVER/BOULDER CO
800 AM MST MON FEB 08 2016

NOTE: "FAIR" INDICATES FEW OR NO CLOUDS BELOW 12000 FEET WITH NO
SIGNIFICANT WEATHER AND/OR OBSTRUCTIONS TO VISIBILITY.

COZ001>005-013-030-031-081600-
...NORTHWEST COLORADO...

CITY           SKY/WX    TMP DP  RH WIND       PRES   REMARKS
CRAIG          CLOUDY    -7 -10  87 CALM      30.60R
HAYDEN         CLOUDY    12   7  79 SE10      30.56R WCI  -1
MEEKER         CLOUDY     4   0  83 CALM      30.57S
MOUNT WERNER   NOT AVBL
STEAMBOAT SPGS CLOUDY    10   8  89 CALM      30.57R
WALDEN         CLOUDY    21  12  68 SE7       30.49R WCI  13
$$

COZ006>008-011-081600-
...WEST CENTRAL VALLEYS...

CITY           SKY/WX    TMP DP  RH WIND       PRES   REMARKS
GRAND JUNCTION CLOUDY    14  11  87 E7        30.59S WCI   4
MONTROSE       CLOUDY    13   7  77 SE7       30.61R WCI   3
EAGLE          CLEAR      7   3  85 CALM      30.64R
RIFLE          CLOUDY    12   7  80 CALM      30.62R
DELTA          CLOUDY    20  16  84 NE5       30.62R WCI  13
NUCLA          CLOUDY    19  12  73 CALM      30.59S
$$

COZ017>023-064>068-081600-
...SOUTHWEST COLORADO...

CITY           SKY/WX    TMP DP  RH WIND       PRES   REMARKS
DURANGO        CLOUDY    13  10  88 CALM      30.47S
CORTEZ         CLOUDY    17  11  77 NE7       30.49R WCI   8
PAGOSA SPRINGS CLOUDY   N/A N/A N/A CALM      30.48R
TELLURIDE      CLOUDY    25  10  52 CALM      30.54
WOLF CREEK PAS CLOUDY    27   5  39 N13       30.54R WCI  16
$$

COZ009-010-012-014-032>034-037-058>063-081600-
...CENTRAL COLORADO...

CITY           SKY/WX    TMP DP  RH WIND       PRES   REMARKS
ASPEN          CLOUDY    15   8  73 S7        30.55F WCI   5
BUENA VISTA    CLOUDY    30  14  50 N16G25    30.44S WCI  19
COPPER MTN     CLOUDY    19  12  73 W16       30.51R WCI   5
BERTHOUD PASS  CLOUDY     9  -2  61 NW30G37   30.43R WCI -14
COTTONWOOD PAS CLOUDY    32  10  40 W9        30.44S WCI  24
GUNNISON       CLOUDY   -11 -26  49 S3        30.60R
KREMMLING      CLOUDY    14   7  73 NE5       30.54F WCI   6
LEADVILLE      CLOUDY    14   7  73 N13       30.49S WCI   0
MONARCH PASS   CLOUDY    14   9  79 MISG      30.60R
SALIDA         NOT AVBL
SUNLIGHT       PTCLDY    21  18  86 N6          N/A  WCI  14
WILKERSON PASS CLOUDY    27  12  54 N16G39    30.42R WCI  14
$$

COZ069>075-081600-
...SAN LUIS VALLEY/SANGRE DE CRISTO MOUNTAINS...

CITY           SKY/WX    TMP DP  RH WIND       PRES   REMARKS
ALAMOSA        CLOUDY    16  10  77 SW6       30.45S WCI   7
LA VETA PASS   CLOUDY    21   9  58 MISG      30.40R
SAGUACHE       CLOUDY    28  12  50 SW6       30.47R WCI  22
$$

COZ035-036-038>040-081600-
...NORTHERN COLORADO FRONT RANGE...

CITY           SKY/WX    TMP DP  RH WIND       PRES   REMARKS
DENVER INTL AP CLOUDY    22  12  65 W6        30.36R WCI  14
DMNS CITY PARK   N/A     25  16  68 S5        30.38R WCI  19
AURORA         MOCLDY    31  16  52 E2        30.36R
FRONT RANGE AP PTCLDY    18  10  73 S7        30.37R WCI   8
ERIE MUNI ARPT CLOUDY    19  16  90 SW5       30.38R WCI  12
BOULDER MUN AP CLOUDY    25  19  80 CALM      30.36R
CENTENNIAL     CLOUDY    23  15  71 SW7       30.35R WCI  15
BROOMFIELD     PTCLDY    21  18  86 W5        30.35S WCI  15
FORT COLLINS   CLOUDY    18  14  86 CALM      30.39R
LONGMONT       CLOUDY    19  13  79 CALM      30.39S
$$

COZ041-046-047-076>085-087-088-081600-
...PIKES PEAK/PALMER DIVIDE AND SOUTHERN FOOTHILLS...

CITY           SKY/WX    TMP DP  RH WIND       PRES   REMARKS
COLO. SPRINGS  CLOUDY    22  17  81 N8        30.37R WCI  12
A. F. ACADEMY  CLEAR     16  15  93 N13       30.33F WCI   3
SCHRIEVER AFB  NOT AVBL
ELLICOTT       NOT AVBL
FALCON         CLOUDY    20  19  98 N9        30.34F WCI   9
FORT CARSON    MOSUNNY   19  17  92 NW5       30.37R WCI  12
LIMON          CLOUDY    14   9  80 W9        30.37S WCI   2
MONUMENT HILL  CLOUDY    27  14  59 W5        30.37R WCI  21
TRINIDAD       CLOUDY    26  20  77 S5        30.37R WCI  20
$$

COZ042>045-048>051-090-091-081600-
...NORTHEAST COLORADO...

CITY           SKY/WX    TMP DP  RH WIND       PRES   REMARKS
GREELEY ARPT   CLOUDY    14  12  92 W3        30.41R
AKRON          CLOUDY    21  14  74 W14       30.37R WCI   8
BURLINGTON     CLOUDY    23  13  65 NW21      30.36R WCI   8
WRAY           CLOUDY    25  13  60 NW14      30.36R WCI  13
STERLING       CLOUDY    30  16  55 NW8       30.38S WCI  23
HOLYOKE        CLOUDY    32  14  47 NW24G31   30.34S WCI  19
FORT MORGAN    CLOUDY    22  15  72 NW12      30.39R WCI  11
$$

COZ086-089-092>099-081600-
...SOUTHEAST COLORADO...

CITY           SKY/WX    TMP DP  RH WIND       PRES   REMARKS
PUEBLO         CLOUDY    28  21  75 NE5       30.41R WCI  23
LA JUNTA       CLOUDY    25  19  78 W10       30.43R WCI  15
LAMAR          CLOUDY    24  17  74 W14       30.41S WCI  12
SPRINGFIELD      N/A     28  18  66 W10       30.41S WCI  19
$$




USA.gov is the U.S. government's official web portal to all federal, state and local government web resources and services.